Regional Weather Roundup
Issued by NWS Sioux Falls, SD

Home | Current Version | Previous Version | Text Only | Print | Product List | Glossary On
Versions: 1 2 3 4 5 6 7 8 9 10 11 12 13 14 15 16 17 18 19 20 21 22 23 24 25 26 27 28 29 30 31 32 33 34 35 36 37 38 39 40 41 42 43 44 45 46 47 48 49 50
000
ASUS43 KFSD 180910
RWRFSD

WEATHER ROUNDUP FOR SE SOUTH DAKOTA/SW MINNESOTA/NW IOWA
NATIONAL WEATHER SERVICE SIOUX FALLS SD
300 AM CST SUN FEB 18 2018

NOTE: "FAIR" INDICATES FEW OR NO CLOUDS BELOW 12,000 FEET WITH NO
SIGNIFICANT WEATHER AND OR OBSTRUCTIONS TO VISIBILITY.


SDZ038>040-050-052>070-181000-
SOUTHEAST SOUTH DAKOTA

CITY           SKY/WX    TMP DP  RH WIND       PRES   REMARKS
BROOKINGS      CLOUDY    24  21  88 SE20      29.83F WCI  10
CHAMBERLAIN    PTCLDY    30  28  91 E12       29.64F WCI  21
HURON          CLOUDY    27  22  81 SE20G26   29.71F WCI  13
MADISON        CLOUDY    23  23 100 SE16G22   29.82F WCI  10
MITCHELL       CLOUDY    28  25  88 SE23      29.75F WCI  14
SIOUX FALLS    CLOUDY    25  21  85 SE14      29.87F WCI  13
WINNER         FAIR      38  23  55 S22G36    29.57F
YANKTON        CLOUDY    28  25  88 SE22      29.83F WCI  14
$$

MNZ071-072-080-081-089-090-097-098-181000-
SOUTHWEST MINNESOTA

CITY           SKY/WX    TMP DP  RH WIND       PRES   REMARKS
FAIRMONT       CLOUDY    15  13  91 E7        30.01F WCI   5
JACKSON        PTCLDY    18  16  93 SE3       29.98F
LUVERNE        CLOUDY    21  19  93 SE10      29.90F WCI  10
MARSHALL       CLOUDY    23  19  85 SE10      29.94F WCI  12
MONTEVIDEO     CLOUDY    21  14  73 SE7       29.96F WCI  13
PIPESTONE      PTCLDY    19  18  93 SE14G21   29.87F WCI   6
REDWOOD FALLS  CLOUDY    20  16  84 E5        29.98F WCI  13
TRACY          CLOUDY    23  20  90 S9        29.95F WCI  13
WINDOM         PTCLDY    18   7  62 SE3       29.98F
WORTHINGTON    CLOUDY    19  18  95 SE10      29.93F WCI   7
$$

IAZ001>003-012>014-020>022-031-032-NEZ013-014-SDZ071-181000-
NORTHWEST IOWA

CITY           SKY/WX    TMP DP  RH WIND       PRES   REMARKS
CHEROKEE       CLOUDY    21  20  98 SE6       29.98F WCI  13
DENISON        CLEAR     30  25  80 SE13      30.01F WCI  20
ESTHERVILLE    CLOUDY    12  11  95 SE7       30.00F WCI   1
LE MARS        CLOUDY    25  23  93 SE17      29.93F WCI  11
ORANGE CITY    PTCLDY    23  23 100 SE8       29.92F WCI  14
SHELDON        CLOUDY    21  21 100 SE14      29.91F WCI   8
SIOUX CITY     CLEAR     20  19  96 SE12      29.95F WCI   8
SPENCER        CLOUDY    17  13  84 SE7       29.98F WCI   8
STORM LAKE     CLOUDY    21  19  93 SE15      29.97F WCI   8
$$

ABBREVIATIONS USED IN REMARKS
   TC - TEMPERATURE IN CELSIUS
  WCI - WIND CHILL INDEX
   HX - HEAT INDEX
  VSB - VISIBILITY





USA.gov is the U.S. government's official web portal to all federal, state and local government web resources and services.